Вернуться в каталог

FENGYUN 1C DEB

АктивенSSO
NORAD 30381·DEBRIS·🇨🇳 China

Запущен May 10, 1999 с Taiyuan Satellite Launch Center

Loading…

Ближайшие Пролёты (ближайшие 24 часа)

TLE

СвежийSource: Space-Track

Эпоха: Sep 12, 2026, 00:50 UTC

1 30381U 99025ACU 26255.03507021  .00001121  00000-0  60599-3 0  9995
2 30381  98.7920 290.6284 0054243  19.6068 340.7174 14.13886002960274

Отслеживайте FENGYUN 1C DEB в реальном времени с AllMySat

Download on the App Store